Location: Heilwood
(40.6210°N, 78.9150°W)
Time: 19:41:22
(UTC-04:00)

Daily predictions for brighter satellites

Satellite Brightness Start Highest point End
(mag) Time Altitude Azimuth Time Altitude Azimuth Time Altitude Azimuth
Cosmos 2297 Rocket 3.3 20:24:04 10° NW 20:29:28 47° WSW 20:34:50 10° S
Nadezhda 4 Rocket 4.1 20:23:41 10° N 20:29:55 66° E 20:36:11 10° SSE
DELTA 2 R/B (1) 3.9 20:26:32 10° W 20:32:04 61° SSW 20:37:35 10° ESE
ALOS 2.9 20:27:33 10° S 20:32:10 61° W 20:36:49 10° NNW
Cosmos 1892 2.7 20:30:06 10° N 20:33:52 63° E 20:37:39 10° SSE
FENGYUN 3A 4.1 20:28:42 10° S 20:34:02 67° WSW 20:39:23 10° NNW
Cosmos 1634 Rocket 4.5 20:30:45 10° SSE 20:36:33 41° E 20:42:24 10° NNE
Cosmos 2263 Rocket 3.9 20:34:38 10° N 20:38:19 18° NE 20:41:59 10° E
Cosmos 1092 Rocket 4.2 20:32:22 10° N 20:38:36 55° E 20:44:47 10° SSE
Meteor 2-3 Rocket 3.8 20:33:25 10° N 20:39:09 89° W 20:44:54 10° S
Cosmos 1315 Rocket 3.3 20:35:37 10° N 20:39:32 42° ENE 20:43:22 10° SSE
H-2A R/B 3.1 20:37:08 10° S 20:41:01 73° WSW 20:44:55 10° NNW
Cosmos 2322 Rocket 3.1 20:37:25 10° SSE 20:41:59 26° ESE 20:46:33 10° NE
Cosmos 2034 Rocket 4.4 20:36:30 10° SSW 20:42:38 70° W 20:48:48 10° N
USA 186 1.7 20:40:29 10° SSE 20:43:02 46° ENE 20:45:46 10° N
Cosmos 1707 Rocket 3.7 20:42:32 10° S 20:46:54 57° E 20:51:15 10° NNE
Abrixas rocket 2.2 20:44:10 10° WSW 20:47:28 90° NW 20:50:46 10° ENE
Spot 2 Rocket 3.6 20:43:11 10° SSE 20:48:17 85° WSW 20:53:24 10° NNW
USA 267 4.3 20:44:47 10° NE 20:51:00 48° NNW 20:57:12 10° WSW
Cosmos 2360 Rocket 3.9 20:52:40 11° ESE 20:53:30 12° E 20:55:22 10° ENE
Cosmos 1980 Rocket 2.3 20:47:57 10° SSW 20:53:38 86° WNW 20:59:22 10° NNE
Cosmos 1733 Rocket 4.4 20:51:04 10° NNE 20:54:38 23° ENE 20:57:20 14° ESE
Helios 1B rocket 2.5 20:54:57 10° NNE 20:59:00 53° E 21:02:59 10° S
CZ-2D R/B 3.7 20:55:32 10° S 20:59:23 66° W 21:03:17 10° NNW
Lacrosse 4 Rocket 2.6 20:56:43 10° N 21:00:30 29° NE 21:03:17 16° ESE
Resurs 1-3 4.1 20:56:13 10° S 21:00:34 63° WSW 21:04:56 10° NNW
Meteor 1-29 3.4 20:57:36 10° NNE 21:00:56 41° E 21:04:13 10° S
Cosmos 1869 Rocket 3.8 21:00:29 10° N 21:04:58 76° W 21:09:26 10° S
Cosmos 1825 2.8 21:02:31 10° N 21:06:03 36° ENE 21:08:24 18° SE
Cosmos 1862 4.5 21:03:03 10° NNE 21:06:29 26° ENE 21:08:23 18° ESE
Envisat 3.0 21:03:08 10° SSE 21:08:08 63° ENE 21:13:10 10° N
SL-16 R/B 2.5 21:03:24 10° S 21:08:43 44° ESE 21:14:05 10° NE
Cosmos 1302 Rocket 4.1 21:03:34 10° SSW 21:08:46 81° WNW 21:14:00 10° NNE
Cosmos 1627 Rocket 4.5 21:05:44 10° N 21:11:56 65° E 21:18:01 10° SSE
Cosmos 1939 Rocket 3.0 21:09:41 15° SSE 21:12:57 54° ENE 21:16:54 10° N
Cosmos 2242 Rocket 3.7 21:08:50 10° S 21:13:14 53° E 21:17:37 10° NNE
Milstar 3 3.8 21:06:17 10° WSW 21:13:14 31° S 21:17:22 17° SE
SJ-11-01 4.3 21:10:59 12° SSE 21:15:12 64° ENE 21:19:50 10° N
Cosmos 2195 Rocket 4.4 21:11:17 10° N 21:17:25 74° E 21:23:32 10° SSE
SPOT 5 4.4 21:15:35 16° E 21:17:26 20° ENE 21:20:48 10° NNE
CZ-4B DEB 2.5 21:15:52 19° SSE 21:17:54 75° ENE 21:20:57 10° N
Cosmos 2279 Rocket 4.2 21:12:59 10° SSE 21:18:58 52° E 21:25:00 10° NNE
ATLAS 5 CENTAUR R/B 3.7 21:15:28 10° NNW 21:20:25 27° NE 21:24:21 15° E
USA 234 3.3 21:20:01 18° SE 21:25:08 87° SW 21:31:44 10° NW
OAO 3 Rocket 3.8 21:22:30 10° WSW 21:27:07 41° S 21:29:18 26° ESE
Resurs 01 Rocket 3.7 21:25:34 10° SSW 21:29:19 27° W 21:33:06 10° NW
Helios 1A 3.6 21:27:08 10° S 21:31:17 56° W 21:35:29 10° NNW
Atlas Centaur 2 3.8 21:25:33 10° SSW 21:31:32 27° SSE 21:34:14 22° SE
ARGOS 4.2 21:30:20 22° E 21:32:23 28° ENE 21:36:54 10° N
Cosmos 1428 Rocket 4.5 21:31:05 10° N 21:37:10 63° E 21:41:11 22° SSE
FALCON 9 R/B 2.4 21:37:16 10° SW 21:38:05 16° SSW 21:38:05 16° SSW
ERS-1 Rocket 2.9 21:42:11 28° SSE 21:44:47 68° ENE 21:49:48 10° N
Cosmos 1408 3.1 21:44:28 10° NNW 21:48:07 58° W 21:50:06 24° SSW
ERBS 2.5 21:48:48 10° NW 21:52:13 61° SW 21:52:42 53° S
Sich 1 Rocket 4.0 21:49:10 10° N 21:53:25 42° ENE 21:53:57 40° E
SeaSat 1 2.7 22:00:12 41° ESE 22:01:30 53° ENE 22:06:19 10° NNW
Cosmos 1992 Rocket 4.0 21:57:24 10° SSW 22:02:39 83° WNW 22:07:55 10° NNE
USA 229 DEB 4.0 22:04:47 36° SE 22:06:06 39° ESE 22:12:25 10° NE
USA 229 4.0 22:05:02 36° SE 22:06:12 39° ESE 22:12:30 10° NE
H-2A R/B 3.8 22:07:13 18° NE 22:07:13 18° NE 22:09:43 10° NNE
MetOp-A 4.0 22:08:20 42° SSE 22:10:13 82° ENE 22:15:35 10° NNW
USA 245 4.3 22:08:35 42° SE 22:10:27 64° ENE 22:15:43 10° N
Cosmos 1908 Rocket 3.4 22:06:32 10° N 22:10:51 65° E 22:11:04 64° E
Cosmos 1933 4.1 22:14:41 25° SW 22:16:44 50° W 22:20:41 10° N
COSMOS 2428 4.1 22:23:05 24° ENE 22:23:05 24° ENE 22:25:51 10° NE
YAOGAN 6 4.0 22:20:14 30° SW 22:21:05 34° W 22:24:26 10° NNW
Cosmos 1867 3.8 22:16:29 10° NNW 22:21:50 52° NE 22:22:40 47° E
Cosmos 2263 Rocket 2.2 22:17:17 10° NNW 22:22:51 74° WSW 22:24:22 48° S
H-2A R/B 2.3 22:24:03 48° ENE 22:24:12 48° ENE 22:28:58 10° N
Abrixas rocket 4.3 22:21:48 10° WNW 22:24:34 25° NNW 22:25:18 23° N
Cosmos 1782 Rocket 4.0 22:20:28 10° N 22:24:09 48° NE 22:24:09 48° NE
Okean 2 Rocket 4.0 22:20:45 10° N 22:24:13 35° NE 22:24:13 35° NE
Cosmos 2322 Rocket 3.3 22:20:27 10° SW 22:25:45 43° WNW 22:31:06 10° N
Terra 3.1 22:26:53 27° NE 22:26:53 27° NE 22:30:23 10° N
Meteor 2-10 Rocket 4.0 22:30:48 27° SSW 22:34:07 69° WNW 22:39:56 10° N
Cosmos 2360 Rocket 2.1 22:34:16 37° SSW 22:36:37 88° WNW 22:42:20 10° NNE
SL-08 RB Rocket 3.6 22:37:52 85° N 22:37:52 85° N 22:42:21 10° NNW
Lacrosse 4 Rocket 3.0 22:35:27 10° NW 22:39:07 27° WSW 22:39:39 27° WSW
Meteor 1-20 Rocket 4.2 22:34:41 10° N 22:40:10 59° ENE 22:40:13 59° E
Cosmos 2322 3.6 22:40:41 55° SSW 22:42:02 88° ESE 22:47:47 10° NNE
Cosmos 968 Rocket 3.4 22:41:00 10° NNW 22:46:12 77° WSW 22:46:23 75° SW
ASTEX 1 4.3 22:50:52 37° NE 22:50:52 37° NE 22:54:29 10° N
Cosmos 2266 Rocket 4.2 22:45:54 10° NNW 22:52:06 67° W 22:53:44 49° SSW
SL-16 R/B 4.1 22:48:11 10° WSW 22:52:59 28° NW 22:57:49 10° N
Okean 1-7 3.8 22:55:18 50° N 22:55:18 50° N 22:58:39 10° N
SPOT 5 3.5 22:54:50 46° WSW 22:55:11 47° W 22:59:46 10° NNW
CZ-4C R/B 4.2 22:51:08 10° NNW 22:56:57 27° NE 22:59:44 22° ENE
Cosmos 1703 Rocket 4.4 22:57:23 47° WNW 22:57:23 47° WNW 23:01:39 10° N
Cosmos 2221 Rocket 4.3 23:00:02 51° NW 23:00:02 51° NW 23:03:39 10° N
Cosmos 2333 Rocket 4.1 23:04:54 18° NE 23:04:54 18° NE 23:06:34 10° NE
ATLAS 5 CENTAUR R/B 2.5 22:59:35 10° NW 23:05:37 68° WSW 23:05:54 67° SW
Cosmos 2237 Rocket 4.3 23:14:49 14° NE 23:14:49 14° NE 23:15:49 10° NE
SPOT 1/Viking Rocket 4.1 23:11:28 50° W 23:11:28 50° W 23:16:31 10° NNW
Cosmos 1244 Rocket 4.4 23:06:04 10° N 23:12:15 82° ENE 23:12:15 82° ENE
ARGOS 4.1 23:11:51 36° WSW 23:12:27 37° W 23:17:25 10° NNW
Cosmos 2278 Rocket 3.5 23:09:50 10° N 23:14:18 28° NE 23:14:18 28° NE
Atlas Centaur 2 4.1 23:13:08 10° WSW 23:16:54 28° SW 23:16:54 28° SW
SL-19 R/B 4.4 23:14:57 10° NNE 23:20:40 78° N 23:20:40 78° N
Cosmos 1553 Rocket 4.3 23:23:20 58° NE 23:23:20 58° NE 23:28:33 10° NNE
Cosmos 1844 Rocket 3.0 23:21:09 10° NNW 23:25:44 60° N 23:25:44 60° N
SeaSat 1 4.5 23:39:59 19° W 23:39:59 19° W 23:42:51 10° WNW
Meteor 1-11 Rocket 4.3 23:33:58 10° N 23:38:03 50° N 23:38:03 50° N
H-2A R/B 4.1 23:44:20 24° NW 23:44:20 24° NW 23:46:26 10° NNW
Cosmos 2219 Rocket 3.3 23:45:20 38° NNE 23:45:20 38° NNE 23:48:42 10° NNE
S3M 4.3 23:51:34 63° NNW 23:51:34 63° NNW 23:56:45 10° N
